This demonstration page uses our WeatherBlox Daily Observations layout. Learn more.

41.55636, -103.73856

Hourly Observations for May 11, 2018

Temp ( °F °C ) Dew Point ( °F °C ) Humidity (%) Winds ( mph kmh ) Pressure ( in mb ) Visibility ( mi km ) Precip ( " mm )
12:03 am 00:03 Cloudy 50 10 48 8.9 93 93 ENE 10 17 29.85 1011 10 16.09344 0 0
12:53 am 00:53 Cloudy 50 10 48 8.9 93 93 N 7 11 29.8 1009 10 16.09344 0 0
1:53 am 01:53 Cloudy 49 9.4 48 8.9 97 97 NNE 5 7 29.8 1009 10 16.09344 0 0
2:53 am 02:53 Cloudy 49 9.4 48 8.9 97 97 N 6 9 29.74 1007 10 16.09344 0 0
3:53 am 03:53 Cloudy 49 9.4 47 8.3 93 93 NW 9 15 29.77 1008 10 16.09344 0 0
4:53 am 04:53 Cloudy 48 8.9 47 8.3 96 96 ENE 7 11 29.71 1006 10 16.09344 0 0
5:53 am 05:53 Cloudy 48 8.9 47 8.3 96 96 E 14 22 29.71 1006 10 16.09344 0 0
6:53 am 06:53 Cloudy 48 8.9 47 8.3 96 96 ESE 12 19 29.74 1007 9 14.484096 0 0
7:53 am 07:53 Cloudy 47 8.3 46 7.8 97 97 ESE 12 19 29.77 1008 10 16.09344 0 0
8:53 am 08:53 Cloudy 49 9.4 47 8.3 93 93 ESE 12 19 29.77 1008 10 16.09344 0 0
9:53 am 09:53 Cloudy 50 10 47 8.3 89 89 ESE 5 7 29.8 1009 10 16.09344 0 0
10:53 am 10:53 Cloudy 50 10 48 8.9 93 93 Calm 29.77 1008 10 16.09344 0 0
11:21 am 11:21 Cloudy 53 11.7 49 9.4 86 86 ESE 7 11 29.77 1008 10 16.09344 0 0
11:53 am 11:53 Cloudy 53 11.7 49 9.4 86 86 ESE 7 11 29.77 1008 10 16.09344 0 0
12:53 pm 12:53 Cloudy 55 12.8 50 10 83 83 ESE 9 15 29.74 1007 10 16.09344 0 0
1:36 pm 13:36 Cloudy 59 15 52 11 77 77 ESE 8 13 29.68 1005 10 16.09344 0 0
1:53 pm 13:53 Cloudy 59 15 52 11.1 78 78 ESE 5 7 29.74 1007 10 16.09344 0 0
2:53 pm 14:53 Cloudy 63 17.2 53 11.7 70 70 E 9 15 29.71 1006 10 16.09344 0 0
3:21 pm 15:21 Partly Cloudy 63 17.2 53 11.7 70 70 ESE 12 19 29.62 1003 10 16.09344 0 0
3:53 pm 15:53 Partly Cloudy 61 16.1 53 11.7 75 75 NE 18 30 29.71 1006 10 16.09344 0 0
4:23 pm 16:23 Mostly Cloudy 59 15 52 11.1 78 78 NNE 16 26 29.68 1005 10 16.09344 0 0
4:37 pm 16:37 Partly Cloudy 57 13.9 52 11.1 83 83 NE 20 31 29.68 1005 10 16.09344 0 0
4:53 pm 16:53 Sunny 57 13.9 51 10.6 81 81 ENE 17 28 29.74 1007 10 16.09344 0 0
5:28 pm 17:28 Mostly Cloudy 54 12 50 10 88 88 ENE 18 30 29.77 1008 10 16.09344 0 0
5:53 pm 17:53 Mostly Cloudy 53 11.7 50 10 89 89 ENE 17 28 29.77 1008 10 16.09344 0 0
6:53 pm 18:53 Cloudy 54 12.2 50 10 87 87 ENE 20 31 29.77 1008 10 16.09344 0 0
7:26 pm 19:26 Cloudy 54 12 50 10 88 88 ENE 16 26 29.77 1008 10 16.09344 0 0
7:53 pm 19:53 Cloudy 53 11.7 50 10 89 89 E 15 24 29.8 1009 10 16.09344 0 0
8:21 pm 20:21 Cloudy 52 11.1 50 10 93 93 ENE 17 28 29.77 1008 10 16.09344 0 0
8:53 pm 20:53 Cloudy 52 11.1 50 10 93 93 ENE 14 22 29.83 1010 10 16.09344 0 0
9:53 pm 21:53 Cloudy with Light Rain 50 10 50 10 100 100 NE 13 20 29.88 1012 5 8.04672 0.001 0.001
10:35 pm 22:35 Cloudy with Mist and Fog 50 10 50 10 100 100 ENE 14 22 29.88 1012 6 9.656064 0.01 0.254
10:53 pm 22:53 Cloudy 49 9.4 49 9.4 100 100 ENE 17 28 29.85 1011 10 16.09344 0.01 0.254
11:09 pm 23:09 Cloudy with Mist and Fog 49 9.4 49 9.4 100 100 NE 15 24 29.88 1012 5 8.04672 0 0
11:18 pm 23:18 Cloudy 48 9 48 9 100 100 NE 10 17 29.94 1014 10 16.09344 0 0
11:53 pm 23:53 Cloudy with Light Rain 48 9 N/A N/A NE 14 22 29.88 1012 10 16.09344 0.05 1.27

Powered by AerisWeather